RISAT-2BR1

operational
NORAD ID: 44857 Int'l Des: 2019-089 Owner: ISRO Country: IN
LEOCIRCULAR

关于 RISAT-2BR1

正在加载描述...

实时位置

正在加载3D地球...

即将过境

高度历史

Altitude vs Time

uPlot chart will show altitude changes over time

两行轨道根数

1 44857U 19089F 26061.21971184 .00005773 00000-0 44243-3 0 9995
2 44857 36.9618 26.1844 0013925 20.6472 339.4831 15.01536324341110
Epoch: Mar 2, 2026 • Age: 33 hours

当前状态

高度 577.6 km
速度 7.57 km/s
星下点 -27.43°S, 59.96°W
发射日期 Dec 11, 2019
运行时间 6.2 years
类型 other

技术详情

分类 Payload
质量 628.00 kg
干质量 628.00 kg
总质量 628.00 kg
长度 2.00 m
直径 1.00 m
跨度 5.00 m
形状 Hex Cyl + 2 Pan + Dish
制造商 ISRO
平台类型 TechSar
阶段状态 In Orbit
所有者/国家 ISRO/IN

大型星座

Loading constellations...